Terminal Aerodrome Forecast
Issued by NWS

Home | Current Version | Previous Version | Text Only | Print | Product List | Glossary On
Versions: 1 2 3 4 5 6 7 8 9 10 11 12
000
FTUS44 KEPZ 012300
TAFDMN
TAF
KDMN 012320Z 0200/0224 27011G20KT P6SM FEW120
     FM020300 27006KT P6SM SKC
     FM022000 26010KT P6SM FEW100=

USA.gov is the U.S. government's official web portal to all federal, state and local government web resources and services.